| time (UTC) | temp F | wind direction | speed knots | gust knots | rain 1hr in | rain 24hr in | rain mn in | humidity % | barometer mb |
| 20260505094706 | 67 | 160 | 0.0 | 0.0 | 0.00 | 0.00 | 0.00 | 98 | 1016.5 |
| 20260505094203 | 67 | 160 | 0.0 | 0.0 | 0.00 | 0.00 | 0.00 | 98 | 1016.3 |
| 20260505093659 | 67 | 160 | 0.0 | 0.0 | 0.00 | 0.00 | 0.00 | 98 | 1016.4 |
| 20260505093156 | 67 | 160 | 0.0 | 0.0 | 0.00 | 0.00 | 0.00 | 97 | 1016.3 |
| 20260505092653 | 67 | 160 | 0.0 | 0.0 | 0.00 | 0.00 | 0.00 | 97 | 1016.2 |
| 20260505092152 | 67 | 160 | 0.0 | 0.9 | 0.00 | 0.00 | 0.00 | 98 | 1016.0 |
| 20260505091649 | 67 | 160 | 0.0 | 0.0 | 0.00 | 0.00 | 0.00 | 97 | 1016.0 |
| 20260505091147 | 67 | 160 | 0.0 | 0.9 | 0.00 | 0.00 | 0.00 | 97 | 1016.1 |
| 20260505090644 | 67 | 160 | 0.0 | 0.0 | 0.00 | 0.00 | 0.00 | 97 | 1015.9 |
| 20260505090142 | 67 | 160 | 0.0 | 0.0 | 0.00 | 0.00 | 0.00 | 97 | 1016.1 |
| 20260505085639 | 67 | 160 | 0.0 | 0.9 | 0.00 | 0.00 | 0.00 | 97 | 1016.0 |
| 20260505085137 | 67 | 160 | 0.0 | 0.0 | 0.00 | 0.00 | 0.00 | 97 | 1016.1 |
| 20260505084635 | 67 | 160 | 0.0 | 0.9 | 0.00 | 0.00 | 0.00 | 97 | 1016.1 |
| 20260505084133 | 67 | 160 | 0.0 | 0.0 | 0.00 | 0.00 | 0.00 | 97 | 1016.2 |
| 20260505083630 | 67 | 160 | 0.0 | 0.0 | 0.00 | 0.00 | 0.00 | 97 | 1016.2 |
| 20260505083126 | 67 | 160 | 0.0 | 0.9 | 0.00 | 0.00 | 0.00 | 97 | 1016.0 |
| 20260505082622 | 67 | 161 | 0.0 | 0.0 | 0.00 | 0.00 | 0.00 | 97 | 1015.8 |
| 20260505082120 | 67 | 161 | 0.0 | 0.0 | 0.00 | 0.00 | 0.00 | 97 | 1016.1 |
| 20260505081615 | 67 | 161 | 0.0 | 0.0 | 0.00 | 0.00 | 0.00 | 97 | 1016.0 |
| 20260505081114 | 67 | 161 | 0.0 | 0.0 | 0.00 | 0.00 | 0.00 | 97 | 1016.4 |
| 20260505080609 | 67 | 161 | 0.0 | 0.0 | 0.00 | 0.00 | 0.00 | 97 | 1016.2 |
| 20260505080106 | 67 | 161 | 0.0 | 0.0 | 0.00 | 0.00 | 0.00 | 97 | 1016.1 |
| 20260505075602 | 67 | 161 | 0.0 | 0.0 | 0.00 | 0.00 | 0.00 | 97 | 1016.0 |
| 20260505075059 | 67 | 161 | 0.0 | 0.0 | 0.00 | 0.00 | 0.00 | 97 | 1016.2 |
| 20260505074555 | 67 | 161 | 0.0 | 0.0 | 0.00 | 0.00 | 0.00 | 97 | 1016.3 |
| 20260505074053 | 67 | 161 | 0.0 | 0.0 | 0.00 | 0.00 | 0.00 | 97 | 1016.0 |
| 20260505073550 | 68 | 161 | 0.0 | 0.0 | 0.00 | 0.00 | 0.00 | 97 | 1016.1 |
| 20260505073050 | 67 | 161 | 0.0 | 0.0 | 0.00 | 0.00 | 0.00 | 97 | 1015.8 |
| 20260505072549 | 67 | 161 | 0.0 | 0.0 | 0.00 | 0.00 | 0.00 | 97 | 1016.0 |
| 20260505072046 | 68 | 161 | 0.0 | 0.0 | 0.00 | 0.00 | 0.00 | 97 | 1015.9 |
| 20260505071541 | 68 | 161 | 0.0 | 0.0 | 0.00 | 0.00 | 0.00 | 97 | 1016.1 |
| 20260505071040 | 68 | 161 | 0.0 | 0.0 | 0.00 | 0.00 | 0.00 | 97 | 1015.7 |
| 20260505070537 | 68 | 161 | 0.0 | 0.0 | 0.00 | 0.00 | 0.00 | 97 | 1016.0 |
| 20260505070033 | 67 | 161 | 0.0 | 0.0 | 0.00 | 0.00 | 0.00 | 97 | 1016.1 |
| 20260505065529 | 68 | 161 | 0.0 | 0.0 | 0.00 | 0.00 | 0.00 | 96 | 1016.1 |
| 20260505065026 | 68 | 161 | 0.0 | 0.0 | 0.00 | 0.00 | 0.00 | 96 | 1016.1 |
| 20260505064522 | 68 | 161 | 0.0 | 0.0 | 0.00 | 0.00 | 0.00 | 97 | 1016.1 |
| 20260505064021 | 68 | 161 | 0.0 | 0.0 | 0.00 | 0.00 | 0.00 | 97 | 1016.1 |
| 20260505063518 | 68 | 161 | 0.0 | 0.0 | 0.00 | 0.00 | 0.00 | 97 | 1016.1 |
| 20260505063014 | 68 | 161 | 0.0 | 0.0 | 0.00 | 0.00 | 0.00 | 97 | 1016.1 |
| 20260505062511 | 68 | 161 | 0.0 | 0.0 | 0.00 | 0.00 | 0.00 | 96 | 1016.3 |
| 20260505062008 | 68 | 161 | 0.0 | 0.0 | 0.00 | 0.00 | 0.00 | 96 | 1016.5 |
| 20260505061505 | 68 | 161 | 0.0 | 0.0 | 0.00 | 0.00 | 0.00 | 96 | 1016.2 |
| 20260505061003 | 68 | 161 | 0.0 | 0.0 | 0.00 | 0.00 | 0.00 | 96 | 1016.4 |
| 20260505060500 | 68 | 161 | 0.0 | 0.0 | 0.00 | 0.00 | 0.00 | 96 | 1016.5 |
| 20260505055956 | 68 | 161 | 0.0 | 0.0 | 0.00 | 0.00 | 0.00 | 96 | 1016.4 |
| 20260505055452 | 68 | 161 | 0.0 | 0.0 | 0.00 | 0.00 | 0.00 | 96 | 1016.3 |
| 20260505054949 | 68 | 161 | 0.0 | 0.0 | 0.00 | 0.00 | 0.00 | 96 | 1016.5 |
| 20260505054447 | 69 | 161 | 0.0 | 0.0 | 0.00 | 0.00 | 0.00 | 96 | 1016.5 |
| 20260505053944 | 69 | 161 | 0.0 | 0.0 | 0.00 | 0.00 | 0.00 | 96 | 1016.6 |
| 20260505053441 | 69 | 161 | 0.0 | 0.0 | 0.00 | 0.00 | 0.00 | 96 | 1016.7 |
| 20260505052938 | 69 | 161 | 0.0 | 0.0 | 0.00 | 0.00 | 0.00 | 96 | 1017.0 |
| 20260505052435 | 69 | 161 | 0.0 | 0.0 | 0.00 | 0.00 | 0.00 | 96 | 1016.8 |
| 20260505051932 | 69 | 161 | 0.0 | 0.0 | 0.00 | 0.00 | 0.00 | 96 | 1017.0 |
| 20260505051429 | 69 | 161 | 0.0 | 0.0 | 0.00 | 0.00 | 0.00 | 96 | 1017.0 |
| 20260505050927 | 69 | 161 | 0.0 | 0.0 | 0.00 | 0.00 | 0.00 | 96 | 1017.1 |
| 20260505050425 | 69 | 161 | 0.0 | 0.0 | 0.00 | 0.00 | 0.00 | 96 | 1017.1 |
| 20260505041353 | 70 | 167 | 0.0 | 0.0 | 0.00 | 0.00 | 0.00 | 95 | 1017.3 |
| 20260505040850 | 70 | 167 | 0.0 | 0.0 | 0.00 | 0.00 | 0.00 | 95 | 1017.3 |
| 20260505040348 | 70 | 167 | 0.0 | 0.0 | 0.00 | 0.00 | 0.00 | 95 | 1017.3 |
| 20260505035844 | 70 | 167 | 0.0 | 0.0 | 0.00 | 0.00 | 0.00 | 95 | 1017.3 |
| 20260505035340 | 70 | 167 | 0.0 | 0.0 | 0.00 | 0.00 | 0.00 | 95 | 1017.4 |
| 20260505034837 | 70 | 167 | 0.0 | 0.9 | 0.00 | 0.00 | 0.00 | 95 | 1017.5 |
| 20260505034334 | 70 | 167 | 0.0 | 0.0 | 0.00 | 0.00 | 0.00 | 95 | 1017.7 |
| 20260505033831 | 70 | 167 | 0.0 | 0.0 | 0.00 | 0.00 | 0.00 | 94 | 1017.9 |
| 20260505033328 | 71 | 168 | 0.0 | 0.0 | 0.00 | 0.00 | 0.00 | 94 | 1017.7 |
| 20260505032826 | 71 | 167 | 0.0 | 0.0 | 0.00 | 0.00 | 0.00 | 94 | 1017.6 |
| 20260505032322 | 71 | 167 | 0.0 | 0.0 | 0.00 | 0.00 | 0.00 | 94 | 1017.9 |
| 20260505031819 | 71 | 168 | 0.0 | 0.9 | 0.00 | 0.00 | 0.00 | 94 | 1017.7 |
| 20260505031316 | 71 | 168 | 0.0 | 0.0 | 0.00 | 0.00 | 0.00 | 94 | 1017.7 |
| 20260505030813 | 71 | 168 | 0.0 | 0.0 | 0.00 | 0.00 | 0.00 | 94 | 1017.9 |
| 20260505030310 | 71 | 168 | 0.0 | 0.0 | 0.00 | 0.00 | 0.00 | 94 | 1018.0 |
| 20260505025804 | 71 | 168 | 0.9 | 0.9 | 0.00 | 0.00 | 0.00 | 94 | 1017.8 |
| 20260505025304 | 71 | 166 | 0.9 | 1.7 | 0.00 | 0.00 | 0.00 | 94 | 1017.8 |
| 20260505024801 | 71 | 155 | 0.0 | 0.0 | 0.00 | 0.00 | 0.00 | 94 | 1017.6 |
| 20260505024258 | 71 | 155 | 0.0 | 0.0 | 0.00 | 0.00 | 0.00 | 94 | 1017.8 |
| 20260505023755 | 71 | 155 | 0.0 | 0.9 | 0.00 | 0.00 | 0.00 | 93 | 1017.6 |
| 20260505023252 | 71 | 152 | 0.0 | 0.9 | 0.00 | 0.00 | 0.00 | 93 | 1017.9 |
| 20260505022749 | 71 | 156 | 0.0 | 0.9 | 0.00 | 0.00 | 0.00 | 93 | 1017.7 |
| 20260505022246 | 72 | 156 | 0.0 | 1.7 | 0.00 | 0.00 | 0.00 | 93 | 1017.6 |
| 20260505021742 | 72 | 156 | 0.0 | 0.0 | 0.00 | 0.00 | 0.00 | 93 | 1017.4 |
| 20260505021240 | 72 | 156 | 0.0 | 0.0 | 0.00 | 0.00 | 0.00 | 93 | 1017.5 |
| 20260505020736 | 72 | 156 | 0.0 | 2.6 | 0.00 | 0.00 | 0.00 | 93 | 1017.4 |
| 20260505020231 | 72 | 169 | 0.0 | 0.9 | 0.00 | 0.00 | 0.00 | 93 | 1017.4 |
| 20260505015728 | 72 | 160 | 0.0 | 0.0 | 0.00 | 0.00 | 0.00 | 93 | 1017.4 |
| 20260505015225 | 72 | 160 | 0.0 | 0.0 | 0.00 | 0.00 | 0.00 | 93 | 1017.2 |
| 20260505014723 | 72 | 160 | 0.9 | 1.7 | 0.00 | 0.00 | 0.00 | 93 | 1017.4 |
| 20260505014220 | 72 | 160 | 0.0 | 0.0 | 0.00 | 0.00 | 0.00 | 92 | 1017.5 |
| 20260505013716 | 73 | 153 | 1.7 | 2.6 | 0.00 | 0.00 | 0.00 | 92 | 1017.5 |
| 20260505013213 | 73 | 162 | 0.0 | 0.9 | 0.00 | 0.00 | 0.00 | 92 | 1017.2 |
| 20260505012712 | 73 | 160 | 0.0 | 0.9 | 0.00 | 0.00 | 0.00 | 92 | 1017.2 |
| 20260505012209 | 73 | 160 | 0.0 | 0.9 | 0.00 | 0.00 | 0.00 | 92 | 1017.0 |
| 20260505011704 | 73 | 159 | 0.0 | 0.0 | 0.00 | 0.00 | 0.00 | 91 | 1017.2 |
| 20260505011202 | 73 | 157 | 0.0 | 2.6 | 0.00 | 0.00 | 0.00 | 91 | 1016.9 |
| 20260505010657 | 73 | 158 | 0.0 | 0.9 | 0.00 | 0.00 | 0.00 | 91 | 1017.0 |
| 20260505010154 | 73 | 157 | 0.0 | 0.0 | 0.00 | 0.00 | 0.00 | 91 | 1017.0 |
| 20260505005650 | 73 | 157 | 0.0 | 0.0 | 0.00 | 0.00 | 0.00 | 91 | 1016.9 |
| 20260505005147 | 73 | 157 | 0.9 | 0.9 | 0.00 | 0.00 | 0.00 | 90 | 1016.6 |
| 20260505004644 | 74 | 167 | 0.9 | 0.9 | 0.00 | 0.00 | 0.00 | 90 | 1016.9 |
| 20260505004140 | 74 | 167 | 0.0 | 0.0 | 0.00 | 0.00 | 0.00 | 90 | 1016.6 |
| 20260505003638 | 74 | 167 | 0.0 | 0.0 | 0.00 | 0.00 | 0.00 | 89 | 1016.6 |
| 20260505003135 | 74 | 167 | 0.0 | 0.0 | 0.00 | 0.00 | 0.00 | 88 | 1016.6 |
| 20260505002631 | 74 | 167 | 0.0 | 0.0 | 0.00 | 0.00 | 0.00 | 88 | 1016.8 |
| 20260505002130 | 75 | 167 | 0.0 | 1.7 | 0.00 | 0.00 | 0.00 | 87 | 1016.7 |
| 20260505001626 | 75 | 192 | 0.0 | 0.0 | 0.00 | 0.00 | 0.00 | 86 | 1016.6 |
| 20260505001124 | 76 | 192 | 0.0 | 0.0 | 0.00 | 0.00 | 0.00 | 86 | 1016.2 |
| 20260505000621 | 76 | 192 | 0.0 | 0.0 | 0.00 | 0.00 | 0.00 | 85 | 1016.3 |
| 20260505000119 | 76 | 192 | 0.0 | 0.0 | 0.00 | 0.00 | 0.00 | 83 | 1016.5 |
| 20260504235615 | 76 | 192 | 0.0 | 0.0 | 0.00 | 0.00 | 0.00 | 83 | 1016.4 |
| 20260504235112 | 77 | 192 | 0.0 | 0.0 | 0.00 | 0.00 | 0.00 | 82 | 1016.2 |
| 20260504234609 | 77 | 192 | 0.0 | 0.0 | 0.00 | 0.00 | 0.00 | 82 | 1016.2 |
| 20260504234106 | 77 | 192 | 0.0 | 0.0 | 0.00 | 0.00 | 0.00 | 81 | 1016.4 |
| 20260504233601 | 78 | 192 | 0.0 | 0.0 | 0.00 | 0.00 | 0.00 | 81 | 1016.3 |
| 20260504233058 | 78 | 193 | 0.0 | 0.0 | 0.00 | 0.00 | 0.00 | 80 | 1016.1 |
| 20260504232555 | 78 | 193 | 0.0 | 0.0 | 0.00 | 0.00 | 0.00 | 79 | 1016.4 |
| 20260504232053 | 78 | 193 | 0.0 | 0.0 | 0.00 | 0.00 | 0.00 | 78 | 1015.9 |
| 20260504231549 | 79 | 193 | 0.0 | 0.0 | 0.00 | 0.00 | 0.00 | 78 | 1016.1 |
| 20260504231045 | 79 | 193 | 0.0 | 0.0 | 0.00 | 0.00 | 0.00 | 77 | 1016.2 |
| 20260504230541 | 80 | 192 | 0.0 | 0.0 | 0.00 | 0.00 | 0.00 | 75 | 1016.0 |
| 20260504230041 | 80 | 193 | 0.0 | 0.0 | 0.00 | 0.00 | 0.00 | 72 | 1016.1 |
| 20260504225537 | 81 | 197 | 0.9 | 2.6 | 0.00 | 0.00 | 0.00 | 71 | 1015.9 |
| 20260504225034 | 81 | 225 | 1.7 | 2.6 | 0.00 | 0.00 | 0.00 | 71 | 1015.7 |
| 20260504224531 | 81 | 243 | 0.9 | 1.7 | 0.00 | 0.00 | 0.00 | 71 | 1015.8 |
| 20260504224028 | 82 | 272 | 0.9 | 3.5 | 0.00 | 0.00 | 0.00 | 69 | 1015.6 |
| 20260504223525 | 82 | 248 | 2.6 | 2.6 | 0.00 | 0.00 | 0.00 | 70 | 1015.5 |
| 20260504223021 | 82 | 246 | 0.9 | 3.5 | 0.00 | 0.00 | 0.00 | 69 | 1015.6 |
| 20260504222518 | 82 | 193 | 0.9 | 1.7 | 0.00 | 0.00 | 0.00 | 69 | 1015.5 |
| 20260504222015 | 82 | 167 | 1.7 | 3.5 | 0.00 | 0.00 | 0.00 | 68 | 1015.5 |
| 20260504221512 | 83 | 221 | 2.6 | 2.6 | 0.00 | 0.00 | 0.00 | 67 | 1015.7 |
| 20260504221009 | 83 | 178 | 2.6 | 2.6 | 0.00 | 0.00 | 0.00 | 66 | 1015.4 |
| 20260504220505 | 83 | 149 | 1.7 | 3.5 | 0.00 | 0.00 | 0.00 | 65 | 1015.4 |
| 20260504220002 | 84 | 222 | 1.7 | 6.1 | 0.00 | 0.00 | 0.00 | 64 | 1015.4 |
| 20260504215459 | 85 | 193 | 1.7 | 2.6 | 0.00 | 0.00 | 0.00 | 63 | 1015.2 |
| 20260504214956 | 85 | 195 | 0.9 | 0.9 | 0.00 | 0.00 | 0.00 | 61 | 1015.0 |
| 20260504214452 | 85 | 139 | 0.9 | 3.5 | 0.00 | 0.00 | 0.00 | 61 | 1015.0 |
| 20260504213949 | 85 | 256 | 4.3 | 7.0 | 0.00 | 0.00 | 0.00 | 60 | 1014.8 |
| 20260504213444 | 85 | 196 | 4.3 | 7.8 | 0.00 | 0.00 | 0.00 | 59 | 1015.1 |
| 20260504212943 | 86 | 227 | 1.7 | 5.2 | 0.00 | 0.00 | 0.00 | 57 | 1014.9 |
| 20260504212438 | 86 | 174 | 5.2 | 6.1 | 0.00 | 0.00 | 0.00 | 56 | 1014.8 |
| 20260504211936 | 86 | 193 | 1.7 | 5.2 | 0.00 | 0.00 | 0.00 | 56 | 1015.0 |
| 20260504211432 | 86 | 244 | 3.5 | 11.3 | 0.00 | 0.00 | 0.00 | 58 | 1014.9 |
| 20260504210930 | 87 | 177 | 4.3 | 6.1 | 0.00 | 0.00 | 0.00 | 56 | 1015.1 |
| 20260504210426 | 87 | 212 | 3.5 | 5.2 | 0.00 | 0.00 | 0.00 | 55 | 1014.8 |
| 20260504205923 | 87 | 130 | 1.7 | 7.0 | 0.00 | 0.00 | 0.00 | 55 | 1014.9 |
| 20260504205421 | 87 | 249 | 5.2 | 6.1 | 0.00 | 0.00 | 0.00 | 54 | 1014.9 |
| 20260504204919 | 87 | 225 | 2.6 | 6.1 | 0.00 | 0.00 | 0.00 | 53 | 1015.0 |
| 20260504204417 | 87 | 164 | 0.9 | 5.2 | 0.00 | 0.00 | 0.00 | 55 | 1014.8 |
| 20260504203916 | 87 | 135 | 2.6 | 6.1 | 0.00 | 0.00 | 0.00 | 55 | 1014.7 |
| 20260504203413 | 87 | 179 | 0.9 | 3.5 | 0.00 | 0.00 | 0.00 | 54 | 1014.9 |
| 20260504202909 | 88 | 260 | 3.5 | 5.2 | 0.00 | 0.00 | 0.00 | 53 | 1014.9 |
| 20260504202406 | 87 | 231 | 2.6 | 5.2 | 0.00 | 0.00 | 0.00 | 52 | 1014.7 |
| 20260504201902 | 87 | 239 | 3.5 | 8.7 | 0.00 | 0.00 | 0.00 | 55 | 1014.9 |
| 20260504201400 | 87 | 247 | 5.2 | 7.8 | 0.00 | 0.00 | 0.00 | 53 | 1014.8 |
| 20260504200857 | 88 | 164 | 5.2 | 11.3 | 0.00 | 0.00 | 0.00 | 52 | 1014.6 |
| 20260504200354 | 88 | 226 | 5.2 | 7.8 | 0.00 | 0.00 | 0.00 | 52 | 1014.7 |
| 20260504195851 | 88 | 183 | 5.2 | 7.0 | 0.00 | 0.00 | 0.00 | 51 | 1014.7 |
| 20260504195346 | 88 | 182 | 3.5 | 9.6 | 0.00 | 0.00 | 0.00 | 51 | 1014.7 |
| 20260504194843 | 88 | 112 | 4.3 | 6.1 | 0.00 | 0.00 | 0.00 | 51 | 1014.8 |
| 20260504194339 | 88 | 192 | 5.2 | 7.0 | 0.00 | 0.00 | 0.00 | 51 | 1014.8 |
| 20260504193835 | 88 | 128 | 1.7 | 5.2 | 0.00 | 0.00 | 0.00 | 49 | 1014.9 |
| 20260504193332 | 88 | 236 | 5.2 | 11.3 | 0.00 | 0.00 | 0.00 | 53 | 1014.8 |
| 20260504192831 | 89 | 230 | 3.5 | 7.0 | 0.00 | 0.00 | 0.00 | 52 | 1015.0 |
| 20260504192329 | 89 | 262 | 2.6 | 6.1 | 0.00 | 0.00 | 0.00 | 53 | 1015.1 |
| 20260504191827 | 88 | 147 | 1.7 | 2.6 | 0.00 | 0.00 | 0.00 | 53 | 1015.0 |
| 20260504191324 | 88 | 141 | 1.7 | 2.6 | 0.00 | 0.00 | 0.00 | 52 | 1014.9 |
| 20260504190819 | 88 | 104 | 1.7 | 5.2 | 0.00 | 0.00 | 0.00 | 50 | 1014.9 |
| 20260504190316 | 89 | 181 | 4.3 | 6.1 | 0.00 | 0.00 | 0.00 | 50 | 1014.9 |
| 20260504185812 | 89 | 239 | 2.6 | 5.2 | 0.00 | 0.00 | 0.00 | 51 | 1015.1 |
| 20260504185310 | 89 | 278 | 3.5 | 11.3 | 0.00 | 0.00 | 0.00 | 50 | 1014.9 |
| 20260504184806 | 89 | 79 | 0.0 | 7.0 | 0.00 | 0.00 | 0.00 | 50 | 1015.0 |
| 20260504184301 | 90 | 63 | 3.5 | 6.1 | 0.00 | 0.00 | 0.00 | 46 | 1014.9 |
| 20260504183757 | 89 | 142 | 0.9 | 2.6 | 0.00 | 0.00 | 0.00 | 47 | 1014.9 |
| 20260504183254 | 89 | 67 | 1.7 | 5.2 | 0.00 | 0.00 | 0.00 | 49 | 1015.1 |
| 20260504182753 | 89 | 182 | 3.5 | 6.1 | 0.00 | 0.00 | 0.00 | 47 | 1015.0 |
| 20260504182249 | 89 | 290 | 1.7 | 1.7 | 0.00 | 0.00 | 0.00 | 48 | 1015.2 |
| 20260504181747 | 88 | 193 | 6.1 | 8.7 | 0.00 | 0.00 | 0.00 | 48 | 1015.2 |
| 20260504181244 | 89 | 179 | 7.0 | 11.3 | 0.00 | 0.00 | 0.00 | 46 | 1015.2 |
| 20260504180743 | 89 | 193 | 3.5 | 5.2 | 0.00 | 0.00 | 0.00 | 46 | 1015.5 |
| 20260504180241 | 89 | 142 | 4.3 | 7.8 | 0.00 | 0.00 | 0.00 | 45 | 1015.6 |
| 20260504175739 | 89 | 162 | 4.3 | 7.8 | 0.00 | 0.00 | 0.00 | 48 | 1015.6 |
| 20260504175235 | 89 | 151 | 7.0 | 8.7 | 0.00 | 0.00 | 0.00 | 46 | 1015.3 |
| 20260504174733 | 90 | 206 | 4.3 | 7.0 | 0.00 | 0.00 | 0.00 | 45 | 1015.8 |
| 20260504174231 | 91 | 130 | 3.5 | 6.1 | 0.00 | 0.00 | 0.00 | 45 | 1015.6 |
| 20260504173727 | 91 | 125 | 0.0 | 3.5 | 0.00 | 0.00 | 0.00 | 45 | 1015.8 |
| 20260504173224 | 90 | 128 | 3.5 | 6.1 | 0.00 | 0.00 | 0.00 | 45 | 1015.7 |
| 20260504172721 | 89 | 115 | 2.6 | 7.0 | 0.00 | 0.00 | 0.00 | 43 | 1015.9 |
| 20260504172217 | 90 | 216 | 1.7 | 6.1 | 0.00 | 0.00 | 0.00 | 41 | 1016.0 |
| 20260504171714 | 90 | 145 | 3.5 | 7.0 | 0.00 | 0.00 | 0.00 | 43 | 1015.9 |
| 20260504171211 | 89 | 194 | 4.3 | 6.1 | 0.00 | 0.00 | 0.00 | 44 | 1016.2 |
| 20260504170708 | 89 | 110 | 2.6 | 7.8 | 0.00 | 0.00 | 0.00 | 43 | 1016.1 |
| 20260504170205 | 89 | 189 | 7.8 | 9.6 | 0.00 | 0.00 | 0.00 | 42 | 1016.1 |
| 20260504160124 | 89 | 158 | 5.2 | 6.1 | 0.00 | 0.00 | 0.00 | 51 | 1016.6 |
| 20260504151051 | 87 | 69 | 0.9 | 6.1 | 0.00 | 0.00 | 0.00 | 56 | 1016.8 |
| 20260504150548 | 88 | 144 | 3.5 | 6.1 | 0.00 | 0.00 | 0.00 | 53 | 1016.7 |
| 20260504141014 | 86 | 127 | 0.9 | 3.5 | 0.00 | 0.00 | 0.00 | 56 | 1017.1 |
| 20260504140511 | 86 | 100 | 0.0 | 1.7 | 0.00 | 0.00 | 0.00 | 58 | 1017.2 |
| 20260504130435 | 82 | 136 | 1.7 | 1.7 | 0.00 | 0.00 | 0.00 | 69 | 1017.1 |
| 20260504110322 | 69 | 105 | 0.0 | 0.0 | 0.00 | 0.00 | 0.00 | 98 | 1017.2 |
| 20260504100240 | 67 | 107 | 0.0 | 0.9 | 0.00 | 0.00 | 0.00 | 97 | 1016.8 |